Location: Blue Sky Observatory
(43.1153°N, 70.9036°W)
Time: 23:14:04
(UTC-04:00)

Amateur Radio Satellites - All Passes

Search period start: 28 August 2014 22:44
Search period end: 29 August 2014 22:44
Location: Blue Sky Observatory, 43.1153°N, 70.9036°W

Satellite Date Start Highest point End Downlink Frequencies (MHz)
Time Altitude Azimuth
MaSat-1 28 Aug 22:45:08 22:49:42 45° 57° (ENE) 22:53:41 437.345 MHz
FUNcube-1 28 Aug 22:55:13 22:59:02 35° 263° (W) 23:02:56 145.950 - 145.970 MHz USB
Saudisat 1A 28 Aug 23:35:28 23:39:52 81° 305° (NW) 23:44:19 436.775 MHz
KITSAT 1 29 Aug 00:18:31 00:26:37 87° 120° (ESE) 00:34:46 435.175 FM
MaSat-1 29 Aug 00:23:06 00:26:15 19° 258° (WSW) 00:29:08 437.345 MHz
Sapphire 29 Aug 00:43:51 00:46:58 15° 37° (NE) 00:50:04 437.095 MHz 1200 baud AX-25 AFSK
PCSat 29 Aug 01:12:54 01:17:15 24° 44° (NE) 01:21:35 145.825 MHz
Saudisat 1A 29 Aug 01:17:46 01:20:10 14° 324° (NW) 01:22:36 436.775 MHz
Oscar 19 29 Aug 01:26:16 01:30:22 23° 93° (E) 01:34:26 437.125 CW, 437.150 USB
ITAMSAT 1 29 Aug 01:54:15 01:57:47 18° 92° (E) 02:01:18 435.822 SSB
Oscar 16 29 Aug 02:00:07 02:05:10 49° 99° (E) 02:10:11 437.025 USB, Beacon 2401.1428
Uribyol 2 29 Aug 02:04:17 02:08:28 24° 94° (E) 02:12:37 436.500 FM
AO-Echo 29 Aug 02:10:08 02:14:05 26° 95° (E) 02:18:02 ?
JAS-1B 29 Aug 02:15:05 02:20:51 28° 91° (E) 02:25:56 435.800 - 435.900 CW/SSB
KITSAT 1 29 Aug 02:16:18 02:23:03 28° 323° (NW) 02:29:51 435.175 FM
AO-27 29 Aug 02:21:53 02:26:34 33° 97° (E) 02:31:13 436.795 MHz FM
Sapphire 29 Aug 02:25:57 02:31:24 72° 58° (ENE) 02:36:48 437.095 MHz 1200 baud AX-25 AFSK
Gurwin Techsat 1B 29 Aug 02:38:39 02:42:45 22° 93° (E) 02:46:50 435.225 FM
PCSat 29 Aug 02:55:45 03:01:07 63° 244° (WSW) 03:06:27 145.825 MHz
Oscar 19 29 Aug 03:04:57 03:09:55 46° 290° (WNW) 03:14:50 437.125 CW, 437.150 USB
SO-50 29 Aug 03:19:27 03:22:33 19° 111° (ESE) 03:25:41 436.795 FM
OPAL 29 Aug 03:19:56 03:24:18 30° 63° (ENE) 03:28:45 ?
TMSAT-1 29 Aug 03:30:50 03:35:58 48° 99° (E) 03:41:04 436.925 FM
ITAMSAT 1 29 Aug 03:32:34 03:37:39 58° 289° (WNW) 03:42:43 435.822 SSB
Oscar 16 29 Aug 03:40:10 03:44:12 23° 297° (WNW) 03:48:12 437.025 USB, Beacon 2401.1428
Uribyol 2 29 Aug 03:43:12 03:48:06 44° 291° (WNW) 03:53:00 436.500 FM
AO-Echo 29 Aug 03:48:43 03:52:54 33° 292° (WNW) 03:57:05 ?
AO-7 29 Aug 03:53:43 04:00:01 23° 92° (E) 04:06:16 29.400 - 29.500 MHz
AO-27 29 Aug 04:01:28 04:06:01 32° 294° (WNW) 04:10:35 436.795 MHz FM
JAS-1B 29 Aug 04:05:11 04:11:53 47° 294° (WNW) 04:17:39 435.800 - 435.900 CW/SSB
Sapphire 29 Aug 04:10:50 04:14:11 17° 256° (WSW) 04:17:32 437.095 MHz 1200 baud AX-25 AFSK
Gurwin Techsat 1B 29 Aug 04:17:52 04:22:59 49° 290° (WNW) 04:28:03 435.225 FM
KITSAT 1 29 Aug 04:17:59 04:21:47 14° 353° (N) 04:25:36 435.175 FM
Uosat F 29 Aug 04:36:57 04:41:37 38° 98° (E) 04:46:15 435.120 FM
SO-50 29 Aug 04:58:18 05:02:41 53° 309° (NW) 05:07:12 436.795 FM
OPAL 29 Aug 04:58:29 05:03:05 35° 261° (W) 05:07:47 ?
STRAND 1 29 Aug 05:03:13 05:05:17 12° 57° (ENE) 05:07:20 ?
TMSAT-1 29 Aug 05:11:26 05:15:35 24° 297° (WNW) 05:19:43 436.925 FM
Hamsat 29 Aug 05:26:00 05:27:19 11° 88° (E) 05:28:37 145.90 MHz
UOSAT-12 29 Aug 05:28:54 05:32:53 30° 114° (ESE) 05:36:58 437.025 FM, 437.400 FM
AO-7 29 Aug 05:45:17 05:53:36 78° 291° (WNW) 06:01:50 29.400 - 29.500 MHz
KITSAT 1 29 Aug 06:15:50 06:21:10 18° 24° (NNE) 06:26:29 435.175 FM
Uosat F 29 Aug 06:16:05 06:20:14 27° 295° (WNW) 06:24:23 435.120 FM
Saudisat 1A 29 Aug 06:22:45 06:25:42 17° 38° (NE) 06:28:38 436.775 MHz
JAS-2 29 Aug 06:37:15 06:42:23 57° 101° (E) 06:47:50 435.800 - 435.900 CW/SSB, 435.910 FM
STRAND 1 29 Aug 06:38:35 06:43:42 87° 75° (ENE) 06:48:49 ?
SO-50 29 Aug 06:42:53 06:44:21 11° 330° (NNW) 06:45:49 436.795 FM
Hamsat 29 Aug 06:59:24 07:03:45 69° 285° (WNW) 07:08:03 145.90 MHz
UOSAT-12 29 Aug 07:08:38 07:12:56 37° 313° (NW) 07:17:20 437.025 FM, 437.400 FM
SO-67 29 Aug 07:33:45 07:37:03 40° 98° (E) 07:40:20 435.3500 MHz FM
RS-15 29 Aug 07:37:55 07:48:27 52° 112° (ESE) 07:58:49 29.354 - 29.394 USB, Beacon 29.352 USB
AO-7 29 Aug 07:39:40 07:45:06 20° 312° (NW) 07:50:32 29.400 - 29.500 MHz
Saudisat 1A 29 Aug 08:01:23 08:05:49 77° 237° (WSW) 08:10:12 436.775 MHz
KITSAT 1 29 Aug 08:10:51 08:18:44 52° 50° (NE) 08:26:32 435.175 FM
STRAND 1 29 Aug 08:22:07 08:23:33 11° 272° (W) 08:25:00 ?
JAS-2 29 Aug 08:23:32 08:27:09 19° 298° (WNW) 08:30:53 435.800 - 435.900 CW/SSB, 435.910 FM
SO-67 29 Aug 09:08:09 09:09:45 13° 295° (WNW) 09:11:21 435.3500 MHz FM
HO-68 29 Aug 09:21:30 09:28:18 44° 99° (E) 09:35:04 435.675 MHz FM
RS-15 29 Aug 09:50:11 10:00:50 52° 316° (NW) 10:11:28 29.354 - 29.394 USB, Beacon 29.352 USB
KITSAT 1 29 Aug 10:06:35 10:13:57 41° 250° (WSW) 10:21:17 435.175 FM
UKube-1 29 Aug 10:13:48 10:18:10 73° 103° (ESE) 10:22:29 145.840 MHz, 145.915 MHz
Oscar 11 29 Aug 10:21:43 10:26:03 59° 101° (E) 10:30:21 145.825 FM, Beacon 2401.500 USB
FUNcube-1 29 Aug 10:42:43 10:46:59 40° 98° (E) 10:51:17 145.950 - 145.970 MHz USB
HO-68 29 Aug 11:09:25 11:15:54 39° 298° (WNW) 11:22:22 435.675 MHz FM
ISS 29 Aug 11:26:15 11:29:33 67° 143° (SE) 11:32:52 145.800 FM
Oscar 16 29 Aug 11:43:11 11:44:40 11° 56° (NE) 11:46:09 437.025 USB, Beacon 2401.1428
SO-50 29 Aug 11:48:43 11:52:49 28° 44° (NE) 11:56:57 436.795 FM
UKube-1 29 Aug 11:52:02 11:53:47 12° 300° (WNW) 11:55:31 145.840 MHz, 145.915 MHz
Oscar 11 29 Aug 11:59:19 12:01:45 15° 298° (WNW) 12:04:11 145.825 FM, Beacon 2401.500 USB
RS-15 29 Aug 12:08:03 12:16:33 25° 348° (NNW) 12:25:09 29.354 - 29.394 USB, Beacon 29.352 USB
FUNcube-1 29 Aug 12:19:41 12:23:08 22° 294° (WNW) 12:26:37 145.950 - 145.970 MHz USB
MaSat-1 29 Aug 12:35:03 12:38:18 18° 101° (ESE) 12:41:42 437.345 MHz
Oscar 19 29 Aug 12:43:56 12:48:37 37° 68° (ENE) 12:53:22 437.125 CW, 437.150 USB
JAS-1B 29 Aug 12:57:50 13:06:27 38° 63° (ENE) 13:14:16 435.800 - 435.900 CW/SSB
ISS 29 Aug 13:03:38 13:06:32 27° 342° (NNW) 13:09:26 145.800 FM
ITAMSAT 1 29 Aug 13:12:59 13:17:29 31° 66° (ENE) 13:22:00 435.822 SSB
TMSAT-1 29 Aug 13:16:46 13:18:46 12° 57° (ENE) 13:20:46 436.925 FM
Oscar 16 29 Aug 13:17:59 13:23:08 77° 74° (ENE) 13:28:20 437.025 USB, Beacon 2401.1428
Uribyol 2 29 Aug 13:23:00 13:27:47 40° 68° (ENE) 13:32:35 436.500 FM
AO-Echo 29 Aug 13:23:44 13:28:26 41° 70° (ENE) 13:33:01 ?
SO-50 29 Aug 13:28:59 13:33:34 46° 242° (WSW) 13:38:11 436.795 FM
AO-27 29 Aug 13:40:55 13:45:58 56° 71° (ENE) 13:51:03 436.795 MHz FM
UOSAT-12 29 Aug 13:57:05 14:01:30 37° 47° (NE) 14:05:50 437.025 FM, 437.400 FM
Gurwin Techsat 1B 29 Aug 14:00:30 14:05:23 39° 68° (ENE) 14:10:16 435.225 FM
MaSat-1 29 Aug 14:09:56 14:14:47 62° 300° (WNW) 14:19:55 437.345 MHz
Oscar 19 29 Aug 14:23:35 14:28:01 29° 265° (W) 14:32:29 437.125 CW, 437.150 USB
RS-15 29 Aug 14:24:31 14:33:45 29° 24° (NNE) 14:43:09 29.354 - 29.394 USB, Beacon 29.352 USB
ISS 29 Aug 14:41:36 14:44:03 19° 3° (N) 14:46:30 145.800 FM
JAS-1B 29 Aug 14:46:49 14:56:33 62° 259° (W) 15:05:24 435.800 - 435.900 CW/SSB
ITAMSAT 1 29 Aug 14:52:14 14:56:54 34° 263° (W) 15:01:36 435.822 SSB
TMSAT-1 29 Aug 14:52:33 14:57:50 82° 75° (ENE) 15:03:09 436.925 FM
AO-7 29 Aug 14:53:34 15:00:59 38° 58° (ENE) 15:08:24 29.400 - 29.500 MHz
Oscar 16 29 Aug 15:00:41 15:03:05 13° 271° (W) 15:05:29 437.025 USB, Beacon 2401.1428
Uribyol 2 29 Aug 15:03:07 15:07:23 26° 265° (W) 15:11:40 436.500 FM
AO-Echo 29 Aug 15:03:15 15:07:19 24° 266° (W) 15:11:19 ?
AO-27 29 Aug 15:22:16 15:25:50 19° 268° (W) 15:29:26 436.795 MHz FM
UOSAT-12 29 Aug 15:37:26 15:41:34 30° 246° (WSW) 15:45:37 437.025 FM, 437.400 FM
Gurwin Techsat 1B 29 Aug 15:40:53 15:45:25 28° 265° (W) 15:49:59 435.225 FM
MaSat-1 29 Aug 15:50:53 15:52:53 12° 320° (NW) 15:54:55 437.345 MHz
Uosat F 29 Aug 15:51:04 15:55:59 59° 72° (ENE) 16:00:55 435.120 FM
PCSat 29 Aug 15:58:05 16:00:49 14° 103° (ESE) 16:03:33 145.825 MHz
ISS 29 Aug 16:18:22 16:21:29 35° 23° (NNE) 16:24:35 145.800 FM
Hamsat 29 Aug 16:21:47 16:22:21 10° 60° (ENE) 16:22:55 145.90 MHz
TMSAT-1 29 Aug 16:36:06 16:38:24 13° 272° (W) 16:40:42 436.925 FM
RS-15 29 Aug 16:37:21 16:48:25 72° 52° (NE) 16:59:54 29.354 - 29.394 USB, Beacon 29.352 USB
JAS-1B 29 Aug 16:44:37 16:48:24 13° 277° (W) 16:52:06 435.800 - 435.900 CW/SSB
AO-7 29 Aug 16:45:21 16:53:28 55° 258° (WSW) 17:01:38 29.400 - 29.500 MHz
JAS-2 29 Aug 16:51:11 16:56:16 28° 66° (ENE) 17:00:56 435.800 - 435.900 CW/SSB, 435.910 FM
Oscar 10/S400 29 Aug 16:56:44 17:12:18 28° 144° (SE) 17:33:49 145.825 - 145.975 CW/USB, Beacon 145.810 USB
OPAL 29 Aug 17:06:43 17:11:52 55° 103° (ESE) 17:16:58 ?
Sapphire 29 Aug 17:08:38 17:13:52 54° 115° (ESE) 17:19:09 437.095 MHz 1200 baud AX-25 AFSK
Uosat F 29 Aug 17:31:58 17:35:10 17° 269° (W) 17:38:22 435.120 FM
PCSat 29 Aug 17:38:04 17:43:29 82° 301° (WNW) 17:48:56 145.825 MHz
Hamsat 29 Aug 17:53:17 17:57:36 87° 257° (WSW) 18:01:59 145.90 MHz
ISS 29 Aug 17:55:07 17:58:15 39° 220° (SW) 18:01:23 145.800 FM
SO-67 29 Aug 18:08:39 18:10:56 17° 67° (ENE) 18:13:14 435.3500 MHz FM
JAS-2 29 Aug 18:35:16 18:41:13 44° 261° (W) 18:46:35 435.800 - 435.900 CW/SSB, 435.910 FM
OPAL 29 Aug 18:46:26 18:50:21 22° 300° (WNW) 18:54:14 ?
STRAND 1 29 Aug 18:48:43 18:53:02 27° 95° (E) 18:57:20 ?
RS-15 29 Aug 18:50:29 18:59:57 34° 254° (WSW) 19:09:46 29.354 - 29.394 USB, Beacon 29.352 USB
Sapphire 29 Aug 18:53:05 18:57:37 27° 314° (NW) 19:02:10 437.095 MHz 1200 baud AX-25 AFSK
PCSat 29 Aug 19:24:18 19:27:46 17° 321° (NW) 19:31:14 145.825 MHz
SO-67 29 Aug 19:40:43 19:43:47 29° 264° (W) 19:46:52 435.3500 MHz FM
HO-68 29 Aug 19:51:17 19:57:42 38° 62° (ENE) 20:04:07 435.675 MHz FM
STRAND 1 29 Aug 20:27:37 20:32:18 38° 292° (WNW) 20:36:59 ?
UKube-1 29 Aug 21:10:05 21:14:24 72° 74° (ENE) 21:18:45 145.840 MHz, 145.915 MHz
Oscar 11 29 Aug 21:17:33 21:21:45 51° 73° (ENE) 21:25:59 145.825 FM, Beacon 2401.500 USB
HO-68 29 Aug 21:38:29 21:45:15 45° 261° (W) 21:52:05 435.675 MHz FM
FUNcube-1 29 Aug 21:40:28 21:44:15 34° 70° (ENE) 21:48:07 145.950 - 145.970 MHz USB
Saudisat 1A 29 Aug 22:09:39 22:13:00 22° 112° (ESE) 22:16:22 436.775 MHz
MaSat-1 29 Aug 22:26:50 22:31:18 41° 56° (NE) 22:35:13 437.345 MHz
